[[{"header":{"parameterUnit":"m.s-1","parameterCategory":2,"la1":30.2991,"la2":30.254,"lo1":-89.0895,"lo2":-89.0444,"dy":0.0017,"dx":0.0017,"nx":28,"ny":28,"refTime":"2024-03-27T21:00:00:Z","depth":"0","parameterNumber":2,"parameterNumberName":"U-component_of_CURRENTS"},"data":[0,0,0,0,0,0,0,0,0,0,0,0,0,0,0,0,0,0,0,0,0,0,0,0,0,0,0,0,0,0,0,0,0,0,0,0,0,0,0,0,0,0,0,0,0,0,0,0,0,0,0,0,0,0,0,0,0,0,-0.3225,-0.3225,0,-0.3152,-0.3151,-0.315,-0.3087,-0.3087,-0.3087,-0.3087,-0.2954,-0.2951,-0.2948,0,0,0,0,0,0,0,0,0,0,0,0,0,-0.3243,-0.3242,-0.3225,-0.3225,-0.3224,-0.3153,-0.3151,-0.3149,-0.3087,-0.3087,-0.3087,-0.3087,-0.2956,-0.2951,-0.2947,0,0,0,0,0,0,0,0,0,0,0,0,0,-0.3202,-0.3242,-0.3225,-0.319,-0.3187,-0.3153,-0.3151,-0.3149,-0.3087,-0.3087,-0.3087,-0.3087,-0.2957,-0.2952,-0.2947,-0.2915,0,0,-0.2931,-0.2928,0,0,0,0,0,0,0,0,-0.3205,-0.3201,-0.3196,-0.3193,-0.3189,-0.3135,-0.3109,-0.307,-0.3087,-0.3117,-0.3087,-0.3087,-0.3014,-0.3004,-0.2981,-0.2909,-0.2903,-0.293,-0.2927,-0.2925,-0.2923,0,0,0,0,0,0,0,-0.3208,-0.3203,-0.3189,-0.3196,-0.3192,-0.3156,-0.315,-0.31,-0.306,-0.3115,-0.3112,-0.3116,-0.3011,-0.2986,-0.2977,-0.2901,-0.293,-0.2926,-0.2922,-0.292,-0.277,-0.277,0,0,0,0,0,0,-0.3235,-0.3206,-0.3191,-0.3187,-0.3205,-0.3157,-0.3149,-0.3147,-0.3062,-0.3051,-0.3116,-0.3113,-0.2995,-0.2984,-0.2973,-0.2899,-0.2925,-0.292,-0.2917,-0.2771,-0.277,-0.2769,0,0,0,0,0,0,-0.3235,-0.3234,-0.3194,-0.3201,-0.3195,-0.3158,-0.3154,-0.3145,-0.312,-0.3065,-0.3051,-0.3101,-0.2995,-0.298,-0.2902,-0.2894,-0.2917,-0.2913,-0.2772,-0.2771,-0.277,-0.2771,0,0,0,0,0,0,-0.3236,-0.3234,-0.3228,-0.3203,-0.3196,-0.3144,-0.3155,-0.3144,-0.3126,-0.3122,-0.3048,-0.3035,-0.2994,-0.291,-0.2897,-0.2888,-0.2908,-0.2773,-0.2772,-0.277,-0.2772,-0.277,-0.2768,0,0,0,0,0,-0.3237,-0.3221,-0.3228,-0.3226,-0.3193,-0.3143,-0.3132,-0.3102,-0.3126,-0.3086,-0.3045,-0.3037,-0.2893,-0.2904,-0.2889,-0.2878,-0.2774,-0.2772,-0.277,-0.2773,-0.277,-0.2768,0,0,0,0,0,0,-0.3214,-0.3214,-0.3221,-0.3204,-0.3169,-0.3134,-0.3108,-0.3107,-0.3047,-0.3048,-0.3009,-0.2991,-0.2923,-0.29,-0.2914,-0.2832,-0.284,-0.2835,-0.2847,-0.2844,-0.2842,-0.284,-0.2904,0,0,0,0,0,-0.3216,-0.3201,-0.3192,-0.3169,-0.3165,-0.3145,-0.3125,-0.3105,-0.3063,-0.3038,-0.2989,-0.2947,-0.2905,-0.2873,-0.2818,-0.2766,-0.2752,-0.2755,-0.2753,-0.2752,-0.274,-0.2721,-0.2716,-0.2763,-0.2763,-0.2763,0,0,-0.3201,-0.3198,-0.319,-0.3163,-0.3146,-0.3108,-0.3129,-0.3092,-0.3057,-0.3033,-0.2957,-0.2928,-0.2888,-0.2821,-0.2793,-0.28,-0.273,-0.275,-0.2749,-0.2737,-0.2719,-0.2714,-0.271,-0.2762,-0.2762,-0.2763,0,0,-0.3139,-0.3166,-0.3125,-0.3107,-0.3083,-0.3075,-0.3071,-0.3033,-0.3013,-0.2947,-0.2933,-0.2891,-0.2815,-0.2779,-0.2762,-0.2718,-0.2718,-0.272,-0.2707,-0.2689,-0.2686,-0.2682,-0.2658,-0.2652,-0.2724,-0.2724,-0.2724,0,-0.3115,-0.3077,-0.3098,-0.3055,-0.3047,-0.3066,-0.3021,-0.3,-0.2932,-0.2923,-0.2915,-0.2834,-0.2793,-0.2748,-0.273,-0.2713,-0.2707,-0.2722,-0.2688,-0.2684,-0.2681,-0.2656,-0.265,-0.2723,-0.2723,-0.2723,-0.2723,0,-0.3012,-0.2997,-0.2976,-0.2943,-0.293,-0.2895,-0.2899,-0.2876,-0.2884,-0.2866,-0.2819,-0.2767,-0.2727,-0.2718,-0.2705,-0.2671,-0.2676,-0.2687,-0.2697,-0.2676,-0.2652,-0.2645,-0.2723,-0.2723,-0.2723,-0.2723,0,0,-0.2902,-0.2906,-0.2892,-0.2891,-0.288,-0.2861,-0.2838,-0.2819,-0.2826,-0.2771,-0.276,-0.269,-0.2697,-0.2677,-0.2669,-0.2651,-0.2615,-0.2661,-0.266,-0.2642,-0.2576,-0.2472,-0.2455,-0.2633,-0.2632,-0.2631,-0.2569,0,-0.2805,-0.2742,-0.2762,-0.2713,-0.2699,-0.2745,-0.273,-0.2728,-0.2737,-0.2727,-0.2719,-0.269,-0.2677,-0.2673,-0.2649,-0.2633,-0.2599,-0.2631,-0.2593,-0.2591,-0.2507,-0.2444,-0.2343,-0.227,-0.2563,-0.2561,-0.2561,0,-0.2669,-0.2667,-0.2613,-0.2654,-0.2653,-0.2629,-0.2665,-0.265,-0.2671,-0.2685,-0.2678,-0.2682,-0.2649,-0.2649,-0.2591,-0.262,-0.2583,-0.2567,-0.2564,-0.2459,-0.2474,-0.2337,-0.2247,-0.2227,-0.255,-0.2551,-0.2552,0,-0.2578,-0.2558,-0.2533,-0.2535,-0.2571,-0.2571,-0.2592,-0.2623,-0.2636,-0.2661,-0.2678,-0.2656,-0.2648,-0.2609,-0.2563,-0.2586,-0.2501,-0.2532,-0.2395,-0.2388,-0.2285,-0.227,-0.217,-0.2464,-0.2464,-0.2464,-0.2464,0,-0.2467,-0.2442,-0.2495,-0.2481,-0.2471,-0.2521,-0.2518,-0.255,-0.2596,-0.2605,-0.2647,-0.2641,-0.264,-0.2601,-0.2558,-0.244,-0.2489,-0.2361,-0.2351,-0.2281,-0.2267,-0.2231,-0.2263,-0.2462,-0.2462,-0.2463,-0.2463,0,-0.235,-0.2379,-0.2361,-0.2409,-0.2422,-0.2414,-0.2473,-0.2484,-0.2546,-0.2564,-0.2574,-0.2622,-0.2565,-0.2535,-0.2472,-0.2414,-0.2274,-0.227,-0.2179,-0.2156,-0.2,-0.2036,-0.1916,-0.1865,-0.211,-0.2106,-0.2104,0,-0.2281,-0.226,-0.2298,-0.2295,-0.2309,-0.2324,-0.234,-0.2428,-0.2454,-0.2533,-0.2532,-0.2517,-0.2465,-0.2338,-0.2231,-0.2109,-0.2131,-0.1962,-0.1964,-0.1938,-0.1974,-0.2012,-0.1982,-0.184,-0.1835,-0.1831,-0.1828,0,-0.2157,-0.2172,-0.2167,-0.2171,-0.218,-0.2203,-0.2241,-0.2265,-0.2369,-0.2388,-0.2397,-0.2366,-0.2261,-0.2086,-0.1944,-0.1871,-0.1908,-0.1878,-0.1879,-0.1751,-0.1759,-0.1723,-0.1948,-0.1795,-0.1798,-0.18,-0.1802,-0.1804,-0.2053,-0.2026,-0.2027,-0.2018,-0.204,-0.206,-0.2038,-0.2108,-0.2122,-0.2132,-0.2187,-0.209,-0.1987,-0.1756,-0.1682,-0.1532,-0.162,-0.1498,-0.1545,-0.1587,-0.1516,-0.1646,-0.1465,-0.1466,-0.1468,-0.1469,-0.147,0,-0.1912,-0.1896,-0.1881,-0.1867,-0.1844,-0.1907,-0.1947,-0.1913,-0.1885,-0.1907,-0.1861,-0.1715,-0.1543,-0.1474,-0.1317,-0.1239,-0.1241,-0.1229,-0.1284,-0.127,-0.1393,-0.1358,-0.111,-0.111,-0.111,-0.111,-0.111,-0.111,-0.1832,-0.1761,-0.1759,-0.1665,-0.1663,-0.1595,-0.1591,-0.1569,-0.1559,-0.1453,-0.1379,-0.135,-0.13,-0.1311,-0.1185,-0.1124,-0.1128,-0.1075,-0.1126,-0.125,-0.1281,-0.131,-0.1283,-0.1023,-0.1023,-0.0952,-0.0952,-0.0952]},{"header":{"parameterUnit":"m.s-1","parameterCategory":2,"la1":30.2991,"la2":30.254,"lo1":-89.0895,"lo2":-89.0444,"dy":0.0017,"dx":0.0017,"nx":28,"ny":28,"refTime":"2024-03-27T21:00:00:Z","depth":"0","parameterNumber":3,"parameterNumberName":"V-component_of_CURRENTS"},"data":[0,0,0,0,0,0,0,0,0,0,0,0,0,0,0,0,0,0,0,0,0,0,0,0,0,0,0,0,0,0,0,0,0,0,0,0,0,0,0,0,0,0,0,0,0,0,0,0,0,0,0,0,0,0,0,0,0,0,-0.0204,-0.0203,0,-0.0147,-0.0146,-0.0146,-0.0105,-0.0104,-0.0104,-0.0103,-0.004,-0.0039,-0.0037,0,0,0,0,0,0,0,0,0,0,0,0,0,-0.0248,-0.0248,-0.0204,-0.0203,-0.0202,-0.0147,-0.0146,-0.0145,-0.0105,-0.0104,-0.0104,-0.0103,-0.004,-0.0039,-0.0037,0,0,0,0,0,0,0,0,0,0,0,0,0,-0.0216,-0.0248,-0.0204,-0.0174,-0.0171,-0.0147,-0.0146,-0.0145,-0.0105,-0.0104,-0.0103,-0.0103,-0.0041,-0.0039,-0.0037,-0.004,0,0,-0.0031,-0.0031,0,0,0,0,0,0,0,0,-0.0218,-0.0214,-0.0179,-0.0176,-0.0172,-0.0131,-0.0139,-0.0109,-0.0105,-0.0131,-0.0103,-0.0102,-0.0069,-0.0065,-0.0058,-0.0037,-0.0034,-0.0031,-0.003,-0.0029,-0.0029,0,0,0,0,0,0,0,-0.022,-0.0216,-0.0183,-0.0178,-0.0174,-0.0153,-0.0148,-0.0133,-0.0106,-0.0129,-0.0125,-0.0117,-0.0067,-0.006,-0.0056,-0.0033,-0.0031,-0.003,-0.0029,-0.0028,0.0002,0.0002,0,0,0,0,0,0,-0.0226,-0.0219,-0.0184,-0.0181,-0.0192,-0.0153,-0.0148,-0.0146,-0.0106,-0.0099,-0.0118,-0.0115,-0.0064,-0.0058,-0.0054,-0.0048,-0.0029,-0.0028,-0.0027,0.0002,0.0002,0.0001,0,0,0,0,0,0,-0.0228,-0.0224,-0.0187,-0.0197,-0.019,-0.0153,-0.0152,-0.0145,-0.0135,-0.0097,-0.009,-0.0114,-0.0063,-0.0056,-0.0042,-0.0045,-0.0027,-0.0025,0.0003,0.0002,0.0002,-0.004,0,0,0,0,0,0,-0.0229,-0.0225,-0.0233,-0.0197,-0.019,-0.0179,-0.0152,-0.0144,-0.0131,-0.0127,-0.0092,-0.0086,-0.0062,-0.0045,-0.004,-0.0042,-0.0024,0.0003,0.0002,0.0002,-0.0039,-0.0042,-0.0045,0,0,0,0,0,-0.0231,-0.0249,-0.0234,-0.023,-0.02,-0.0179,-0.0174,-0.0146,-0.0131,-0.0134,-0.0108,-0.0087,-0.0045,-0.0044,-0.0038,-0.004,0.0003,0.0003,0.0002,-0.0037,-0.0042,-0.0045,0,0,0,0,0,0,-0.0276,-0.0245,-0.0228,-0.0236,-0.021,-0.0172,-0.0174,-0.0151,-0.0132,-0.013,-0.0092,-0.0085,-0.0075,-0.0053,-0.0053,-0.0033,-0.0017,-0.0017,-0.0048,-0.0052,-0.0056,-0.0064,-0.0022,0,0,0,0,0,-0.0289,-0.0294,-0.0254,-0.0262,-0.025,-0.0212,-0.0202,-0.0181,-0.0155,-0.0146,-0.0119,-0.0093,-0.0075,-0.006,-0.0044,-0.0033,0.0008,-0.003,-0.0034,-0.0037,-0.004,0.001,0.0011,-0.0001,-0.0001,-0.0001,0,0,-0.031,-0.0293,-0.0297,-0.0272,-0.0251,-0.0243,-0.0205,-0.0194,-0.0189,-0.0143,-0.0135,-0.0109,-0.0077,-0.0066,-0.0058,-0.0045,-0.0008,-0.0038,-0.004,-0.0042,0.001,0.0011,0.0012,-0.0001,-0.0001,-0.0001,0,0,-0.035,-0.0338,-0.0349,-0.0332,-0.0301,-0.0275,-0.0273,-0.0234,-0.0218,-0.0205,-0.0171,-0.0143,-0.0119,-0.0088,-0.0071,-0.0084,-0.0033,-0.0081,-0.0097,-0.0049,-0.0047,-0.0046,0.0026,0.0035,-0.0076,-0.0076,-0.0076,0,-0.0378,-0.0383,-0.035,-0.0352,-0.0344,-0.0292,-0.0299,-0.0276,-0.0238,-0.0225,-0.0211,-0.0159,-0.0128,-0.0103,-0.0103,-0.0091,-0.0049,-0.0085,-0.0053,-0.005,-0.0048,0.0025,0.0035,-0.0078,-0.0078,-0.0078,-0.0077,0,-0.0415,-0.0421,-0.0428,-0.0412,-0.04,-0.0401,-0.0358,-0.0344,-0.0316,-0.0284,-0.0256,-0.0209,-0.0173,-0.0158,-0.0133,-0.0101,-0.0072,-0.0068,-0.0042,-0.0049,0.0029,0.004,-0.0081,-0.008,-0.008,-0.0079,0,0,-0.0474,-0.0458,-0.0462,-0.0466,-0.0433,-0.0429,-0.0419,-0.039,-0.0379,-0.0336,-0.0315,-0.027,-0.0231,-0.021,-0.0168,-0.0119,-0.0053,-0.0088,-0.0084,-0.0016,0.0074,0.0122,0.014,-0.0045,-0.0044,-0.0043,0.0127,0,-0.0513,-0.0535,-0.0513,-0.0535,-0.0543,-0.0499,-0.0493,-0.046,-0.0421,-0.0386,-0.0322,-0.0289,-0.0255,-0.0231,-0.018,-0.0087,-0.0029,-0.0098,0.0069,0.0075,0.0118,0.0152,0.0163,0.0318,0.0139,0.0141,0.0142,0,-0.0552,-0.0565,-0.0593,-0.0595,-0.0593,-0.0594,-0.0571,-0.0559,-0.0493,-0.046,-0.0407,-0.0349,-0.0267,-0.0242,-0.0083,-0.0129,-0.0035,0.004,0.0048,0.0113,0.0143,0.0292,0.0345,0.0448,0.016,0.0158,0.0157,0,-0.0607,-0.0621,-0.0648,-0.0649,-0.0638,-0.0642,-0.0632,-0.0583,-0.0569,-0.05,-0.0466,-0.0374,-0.0302,-0.0196,-0.0029,-0.0056,0.0159,0.0142,0.0278,0.0284,0.0337,0.0345,0.0508,0.025,0.025,0.0249,0.0249,0,-0.0656,-0.0681,-0.0676,-0.0694,-0.0726,-0.0696,-0.0706,-0.068,-0.0628,-0.0592,-0.0507,-0.0436,-0.0288,-0.0143,-0.0023,0.0183,0.0172,0.029,0.0331,0.0325,0.0329,0.0454,0.0488,0.0256,0.0254,0.0253,0.0252,0,-0.0709,-0.0705,-0.074,-0.0746,-0.0752,-0.0774,-0.0765,-0.0763,-0.0703,-0.0647,-0.0623,-0.0462,-0.026,-0.0095,0.0122,0.0215,0.0465,0.0458,0.0456,0.0492,0.0676,0.0706,0.0913,0.0993,0.0621,0.0623,0.0625,0,-0.0734,-0.0757,-0.0787,-0.0813,-0.0818,-0.084,-0.0851,-0.0812,-0.0792,-0.0645,-0.061,-0.0404,-0.0226,0.0114,0.0306,0.0536,0.0604,0.0671,0.0608,0.0709,0.0772,0.0781,0.0833,0.0679,0.0681,0.0683,0.0684,0,-0.0785,-0.0792,-0.082,-0.0875,-0.0901,-0.0928,-0.0927,-0.0917,-0.0834,-0.0739,-0.0548,-0.0388,-0.0053,0.0236,0.0515,0.0634,0.0743,0.0714,0.0818,0.0837,0.0858,0.0947,0.056,0.07,0.0698,0.0697,0.0696,0.0696,-0.0814,-0.0848,-0.0881,-0.0933,-0.0968,-0.0989,-0.0989,-0.0928,-0.0851,-0.0659,-0.0512,-0.0216,0.0145,0.055,0.0695,0.0949,0.0909,0.0997,0.1032,0.1038,0.109,0.0748,0.0923,0.0922,0.0922,0.0922,0.0922,0,-0.0841,-0.0881,-0.0936,-0.0989,-0.1029,-0.1033,-0.1018,-0.0958,-0.0819,-0.0594,-0.0371,0.0089,0.0448,0.0763,0.1112,0.1247,0.1265,0.131,0.1317,0.1361,0.1068,0.1043,0.1251,0.125,0.125,0.125,0.125,0.125,-0.0857,-0.0913,-0.0946,-0.1021,-0.1055,-0.1063,-0.1042,-0.0899,-0.0726,-0.0341,-0.003,0.022,0.0648,0.1175,0.1498,0.1522,0.1644,0.1626,0.1716,0.1488,0.146,0.1433,0.1419,0.1701,0.1702,0.1984,0.1987,0.1989]}],[{"header":{"parameterUnit":"m.s-1","parameterCategory":2,"la1":30.2991,"la2":30.254,"lo1":-89.0895,"lo2":-89.0444,"dy":0.0017,"dx":0.0017,"nx":28,"ny":28,"refTime":"2024-03-27T21:00:00:Z","depth":"2","parameterNumber":2,"parameterNumberName":"U-component_of_CURRENTS"},"data":[0,0,0,0,0,0,0,0,0,0,0,0,0,0,0,0,0,0,0,0,0,0,0,0,0,0,0,0,0,0,0,0,0,0,0,0,0,0,0,0,0,0,0,0,0,0,0,0,0,0,0,0,0,0,0,0,0,0,-0.2507,-0.2508,0,-0.2526,-0.2525,-0.2525,-0.2497,-0.2497,-0.2497,-0.2497,-0.2492,-0.2492,-0.2492,0,0,0,0,0,0,0,0,0,0,0,0,0,-0.2448,-0.2448,-0.2507,-0.2508,-0.2509,-0.2526,-0.2525,-0.2525,-0.2497,-0.2497,-0.2497,-0.2497,-0.2492,-0.2492,-0.2492,0,0,0,0,0,0,0,0,0,0,0,0,0,-0.2462,-0.2448,-0.2506,-0.2504,-0.2505,-0.2526,-0.2525,-0.2524,-0.2497,-0.2497,-0.2497,-0.2497,-0.2492,-0.2492,-0.2492,-0.2494,0,0,-0.2491,-0.2491,0,0,0,0,0,0,0,0,-0.2461,-0.2463,-0.2503,-0.2505,-0.2505,-0.2517,-0.2503,-0.2516,-0.2497,-0.249,-0.2497,-0.2497,-0.2504,-0.2503,-0.2494,-0.2494,-0.2494,-0.2491,-0.2491,-0.2491,-0.2491,0,0,0,0,0,0,0,-0.246,-0.2462,-0.2505,-0.2505,-0.2506,-0.2504,-0.2504,-0.2505,-0.249,-0.2491,-0.2491,-0.2509,-0.2503,-0.2494,-0.2494,-0.2494,-0.2491,-0.2491,-0.2491,-0.2491,-0.2474,-0.2474,0,0,0,0,0,0,-0.2477,-0.2461,-0.2504,-0.2506,-0.2493,-0.2506,-0.2506,-0.2506,-0.2491,-0.2491,-0.2509,-0.2507,-0.2494,-0.2494,-0.2494,-0.2486,-0.2491,-0.2491,-0.2491,-0.2475,-0.2474,-0.2474,0,0,0,0,0,0,-0.2475,-0.248,-0.2504,-0.2493,-0.2497,-0.2508,-0.2507,-0.2507,-0.2514,-0.2506,-0.2504,-0.252,-0.2494,-0.2494,-0.249,-0.2486,-0.2491,-0.2491,-0.2475,-0.2475,-0.2474,-0.2478,0,0,0,0,0,0,-0.2473,-0.2478,-0.2481,-0.2493,-0.2498,-0.2514,-0.2509,-0.2507,-0.2528,-0.2527,-0.2515,-0.2513,-0.2494,-0.249,-0.249,-0.2486,-0.2491,-0.2476,-0.2475,-0.2474,-0.2478,-0.2478,-0.2477,0,0,0,0,0,-0.247,-0.2475,-0.248,-0.2486,-0.2501,-0.2515,-0.2515,-0.2517,-0.2529,-0.2524,-0.2516,-0.2514,-0.2485,-0.249,-0.249,-0.2486,-0.2476,-0.2475,-0.2474,-0.2479,-0.2478,-0.2477,0,0,0,0,0,0,-0.2452,-0.2474,-0.2479,-0.2491,-0.2504,-0.2514,-0.2517,-0.2532,-0.2522,-0.2523,-0.2514,-0.2511,-0.25,-0.2497,-0.2504,-0.2477,-0.2479,-0.2478,-0.2482,-0.2481,-0.2481,-0.2469,-0.2491,0,0,0,0,0,-0.2452,-0.2458,-0.248,-0.249,-0.2497,-0.2513,-0.2523,-0.2528,-0.2531,-0.2527,-0.2517,-0.2506,-0.2494,-0.2493,-0.2475,-0.2474,-0.2459,-0.2469,-0.2468,-0.2468,-0.2457,-0.244,-0.2437,-0.2471,-0.2471,-0.2471,0,0,-0.2441,-0.2465,-0.2462,-0.2487,-0.2495,-0.2496,-0.2514,-0.2532,-0.2531,-0.253,-0.2512,-0.2504,-0.2492,-0.2473,-0.247,-0.2474,-0.2449,-0.2467,-0.2466,-0.2456,-0.2439,-0.2435,-0.2432,-0.247,-0.2471,-0.2471,0,0,-0.2428,-0.2449,-0.2443,-0.2458,-0.2489,-0.2498,-0.2511,-0.2522,-0.252,-0.2518,-0.2507,-0.2495,-0.2487,-0.2462,-0.2456,-0.2446,-0.2442,-0.2451,-0.2445,-0.2428,-0.2425,-0.2423,-0.2394,-0.2389,-0.2456,-0.2456,-0.2456,0,-0.2411,-0.2416,-0.2444,-0.2451,-0.2464,-0.2501,-0.2497,-0.2503,-0.2508,-0.2508,-0.2511,-0.2486,-0.2474,-0.2455,-0.2441,-0.2443,-0.2435,-0.2452,-0.2428,-0.2425,-0.2422,-0.2393,-0.2387,-0.2456,-0.2456,-0.2456,-0.2456,0,-0.239,-0.2398,-0.2402,-0.2415,-0.2431,-0.244,-0.2463,-0.247,-0.2487,-0.249,-0.248,-0.246,-0.2446,-0.2442,-0.2438,-0.2415,-0.2416,-0.2426,-0.2431,-0.2419,-0.2389,-0.2383,-0.2456,-0.2456,-0.2456,-0.2456,0,0,-0.2324,-0.2372,-0.2371,-0.2379,-0.2416,-0.2427,-0.2436,-0.2447,-0.2461,-0.2455,-0.2457,-0.2426,-0.243,-0.2421,-0.2418,-0.2402,-0.2369,-0.2409,-0.2408,-0.2382,-0.2329,-0.2238,-0.2222,-0.2387,-0.2386,-0.2385,-0.2315,0,-0.2289,-0.23,-0.2333,-0.2334,-0.2336,-0.2382,-0.239,-0.2413,-0.2433,-0.2441,-0.2437,-0.2431,-0.2421,-0.2422,-0.2403,-0.2385,-0.2354,-0.2386,-0.2342,-0.234,-0.2263,-0.2212,-0.2068,-0.1985,-0.2308,-0.2307,-0.2307,0,-0.2234,-0.2263,-0.2259,-0.2306,-0.2311,-0.2319,-0.2357,-0.2371,-0.2402,-0.242,-0.2423,-0.2431,-0.2406,-0.2406,-0.2351,-0.2379,-0.2342,-0.2324,-0.2321,-0.2227,-0.2237,-0.2051,-0.1962,-0.2296,-0.2297,-0.2298,-0.2298,0,-0.2165,-0.22,-0.2203,-0.2215,-0.2273,-0.2283,-0.2312,-0.2354,-0.2371,-0.2405,-0.2423,-0.2412,-0.2403,-0.2368,-0.2324,-0.2344,-0.2263,-0.2288,-0.2162,-0.2156,-0.2015,-0.1998,-0.2225,-0.2225,-0.2225,-0.2225,-0.2225,0,-0.2105,-0.2103,-0.2173,-0.2176,-0.2187,-0.2244,-0.2258,-0.2296,-0.2344,-0.2351,-0.2401,-0.2391,-0.2395,-0.2359,-0.2319,-0.2208,-0.2252,-0.2132,-0.2121,-0.2011,-0.1995,-0.2257,-0.2262,-0.2222,-0.2223,-0.2223,-0.2224,0,-0.201,-0.2056,-0.2063,-0.2131,-0.2149,-0.2155,-0.2222,-0.2236,-0.23,-0.2312,-0.2323,-0.2365,-0.2311,-0.2295,-0.2233,-0.218,-0.2102,-0.2049,-0.1911,-0.1883,-0.2009,-0.2015,-0.19,-0.1896,-0.1892,-0.1889,-0.1887,0,-0.1959,-0.1955,-0.2017,-0.2023,-0.2048,-0.2079,-0.2099,-0.2187,-0.2207,-0.2271,-0.2262,-0.2251,-0.2197,-0.2088,-0.1996,-0.1891,-0.1981,-0.171,-0.1704,-0.1969,-0.1971,-0.1982,-0.1992,-0.1524,-0.1519,-0.1515,-0.1511,0,-0.1859,-0.1882,-0.1895,-0.1918,-0.1936,-0.1963,-0.2002,-0.2019,-0.211,-0.2117,-0.2105,-0.2073,-0.1985,-0.1805,-0.1697,-0.1628,-0.1721,-0.1618,-0.1917,-0.1631,-0.1609,-0.1614,-0.1637,-0.1474,-0.1477,-0.148,-0.1482,-0.1484,-0.1768,-0.1756,-0.1777,-0.1785,-0.1812,-0.1823,-0.1794,-0.1843,-0.1841,-0.1812,-0.188,-0.1762,-0.1745,-0.1471,-0.138,-0.1314,-0.1431,-0.1381,-0.1397,-0.1416,-0.1387,-0.1361,-0.1173,-0.1175,-0.1176,-0.1178,-0.1179,0,-0.1644,-0.1644,-0.1645,-0.1645,-0.1622,-0.1686,-0.17,-0.1638,-0.1572,-0.1569,-0.151,-0.1312,-0.1194,-0.1182,-0.1007,-0.0974,-0.0996,-0.0947,-0.0983,-0.102,-0.1052,-0.1008,-0.0691,-0.069,-0.0689,-0.0688,0,0,-0.1573,-0.1525,-0.1531,-0.1448,-0.1449,-0.1366,-0.1342,-0.1265,-0.1226,-0.1093,-0.1017,-0.1082,-0.1121,-0.0892,-0.0851,-0.0739,-0.0875,-0.0703,-0.1092,-0.1169,-0.12,-0.1296,-0.1267,0,0,0,0,0]},{"header":{"parameterUnit":"m.s-1","parameterCategory":2,"la1":30.2991,"la2":30.254,"lo1":-89.0895,"lo2":-89.0444,"dy":0.0017,"dx":0.0017,"nx":28,"ny":28,"refTime":"2024-03-27T21:00:00:Z","depth":"2","parameterNumber":3,"parameterNumberName":"V-component_of_CURRENTS"},"data":[0,0,0,0,0,0,0,0,0,0,0,0,0,0,0,0,0,0,0,0,0,0,0,0,0,0,0,0,0,0,0,0,0,0,0,0,0,0,0,0,0,0,0,0,0,0,0,0,0,0,0,0,0,0,0,0,0,0,-0.0427,-0.0427,0,-0.035,-0.035,-0.0349,-0.0305,-0.0304,-0.0304,-0.0304,-0.0209,-0.0207,-0.0204,0,0,0,0,0,0,0,0,0,0,0,0,0,-0.0476,-0.0476,-0.0428,-0.0426,-0.0425,-0.0351,-0.035,-0.0349,-0.0305,-0.0304,-0.0304,-0.0304,-0.0209,-0.0207,-0.0204,0,0,0,0,0,0,0,0,0,0,0,0,0,-0.0434,-0.0476,-0.0428,-0.0394,-0.039,-0.0351,-0.035,-0.0348,-0.0305,-0.0304,-0.0304,-0.0304,-0.021,-0.0207,-0.0204,-0.019,0,0,-0.0193,-0.0192,0,0,0,0,0,0,0,0,-0.0437,-0.0433,-0.04,-0.0396,-0.0391,-0.0336,-0.0332,-0.0294,-0.0305,-0.0338,-0.0304,-0.0303,-0.0249,-0.0242,-0.0231,-0.0186,-0.0182,-0.0193,-0.0191,-0.0189,-0.0188,0,0,0,0,0,0,0,-0.044,-0.0435,-0.0398,-0.0399,-0.0393,-0.0361,-0.0356,-0.0324,-0.0297,-0.0335,-0.0332,-0.0321,-0.0247,-0.0234,-0.0228,-0.0181,-0.0193,-0.019,-0.0188,-0.0186,-0.0117,-0.0117,0,0,0,0,0,0,-0.0451,-0.0439,-0.0401,-0.0396,-0.0412,-0.0361,-0.0355,-0.0355,-0.0298,-0.0289,-0.0322,-0.032,-0.024,-0.0232,-0.0225,-0.0197,-0.0189,-0.0186,-0.0184,-0.0117,-0.0117,-0.0118,0,0,0,0,0,0,-0.0452,-0.0449,-0.0404,-0.0414,-0.0406,-0.0361,-0.0361,-0.0354,-0.0338,-0.0288,-0.0278,-0.0314,-0.024,-0.0229,-0.0194,-0.0193,-0.0185,-0.0181,-0.0117,-0.0117,-0.0117,-0.0146,0,0,0,0,0,0,-0.0454,-0.045,-0.0453,-0.0415,-0.0405,-0.0379,-0.0361,-0.0352,-0.0332,-0.0328,-0.0278,-0.0269,-0.0239,-0.0199,-0.019,-0.0188,-0.0179,-0.0116,-0.0117,-0.0117,-0.0145,-0.0148,-0.015,0,0,0,0,0,-0.0456,-0.0463,-0.0454,-0.0449,-0.0412,-0.0379,-0.0371,-0.0339,-0.0332,-0.0324,-0.0291,-0.027,-0.0196,-0.0196,-0.0186,-0.0183,-0.0116,-0.0117,-0.0117,-0.0144,-0.0147,-0.015,0,0,0,0,0,0,-0.0485,-0.0458,-0.0448,-0.0446,-0.0414,-0.0371,-0.0362,-0.0342,-0.0311,-0.0309,-0.0266,-0.0254,-0.0228,-0.0202,-0.0204,-0.0166,-0.0155,-0.0154,-0.0179,-0.0182,-0.0184,-0.019,-0.0176,0,0,0,0,0,-0.0494,-0.0494,-0.0457,-0.0456,-0.0443,-0.0405,-0.0388,-0.0366,-0.0332,-0.0318,-0.0282,-0.0249,-0.0223,-0.02,-0.0173,-0.0145,-0.0111,-0.0139,-0.0141,-0.0144,-0.0142,-0.0095,-0.0092,-0.0119,-0.0119,-0.0119,0,0,-0.0506,-0.049,-0.0491,-0.0462,-0.0438,-0.0421,-0.0394,-0.0371,-0.0357,-0.0313,-0.0285,-0.0257,-0.0219,-0.0192,-0.0177,-0.0167,-0.0118,-0.0144,-0.0146,-0.0143,-0.0095,-0.0092,-0.009,-0.0119,-0.0119,-0.0119,0,0,-0.0523,-0.0516,-0.0517,-0.0495,-0.046,-0.0435,-0.0431,-0.0387,-0.0368,-0.0338,-0.0309,-0.0274,-0.0232,-0.0198,-0.0178,-0.0176,-0.0137,-0.0176,-0.0181,-0.0136,-0.0133,-0.013,-0.0079,-0.0072,-0.017,-0.017,-0.017,0,-0.0538,-0.0536,-0.051,-0.05,-0.0488,-0.0445,-0.044,-0.0412,-0.0362,-0.0347,-0.0335,-0.027,-0.0233,-0.0196,-0.0195,-0.018,-0.0149,-0.0173,-0.0138,-0.0134,-0.0131,-0.008,-0.0071,-0.0172,-0.0172,-0.0171,-0.0171,0,-0.0549,-0.0548,-0.0546,-0.0526,-0.0507,-0.0496,-0.0456,-0.0436,-0.0412,-0.0379,-0.0341,-0.0289,-0.0249,-0.0234,-0.021,-0.0172,-0.0157,-0.0152,-0.013,-0.013,-0.0076,-0.0066,-0.0174,-0.0173,-0.0173,-0.0173,0,0,-0.0587,-0.0561,-0.0562,-0.0562,-0.0523,-0.0513,-0.049,-0.0456,-0.0445,-0.0393,-0.037,-0.0314,-0.0283,-0.0259,-0.0222,-0.0176,-0.0118,-0.0155,-0.0152,-0.0103,-0.0013,0.0011,0.0024,-0.0109,-0.0107,-0.0106,0.0017,0,-0.0605,-0.0606,-0.0582,-0.0586,-0.0586,-0.0547,-0.0532,-0.0496,-0.0459,-0.0424,-0.0362,-0.0328,-0.0294,-0.0275,-0.0222,-0.0149,-0.0095,-0.0151,-0.0022,-0.0017,0.0005,0.0035,0.0008,0.0117,0.0027,0.0029,0.003,0,-0.0623,-0.0625,-0.0634,-0.0627,-0.0623,-0.0616,-0.0593,-0.0572,-0.0509,-0.048,-0.0425,-0.0375,-0.0296,-0.0274,-0.0135,-0.0175,-0.0096,-0.0035,-0.0029,0.001,0.0024,0.0101,0.0138,0.0047,0.0045,0.0044,0.0043,0,-0.0669,-0.0663,-0.0677,-0.0673,-0.0653,-0.0652,-0.064,-0.0591,-0.0579,-0.0512,-0.0489,-0.0395,-0.0342,-0.0239,-0.0104,-0.012,0.0053,0.0048,0.0147,0.015,0.0162,0.0164,0.0149,0.0149,0.0148,0.0148,0.0148,0,-0.0702,-0.0715,-0.0704,-0.0714,-0.0737,-0.0702,-0.071,-0.0682,-0.0635,-0.0611,-0.0524,-0.0476,-0.0331,-0.0214,-0.0104,0.0061,0.0059,0.0159,0.0187,0.0151,0.015,0.0111,0.0105,0.0153,0.0152,0.0151,0.015,0,-0.0748,-0.0737,-0.0759,-0.0756,-0.076,-0.0778,-0.0769,-0.0768,-0.0714,-0.0678,-0.0658,-0.0526,-0.0366,-0.021,-0.0022,0.0067,0.0214,0.0271,0.0224,0.0245,0.028,0.0271,0.0393,0.0395,0.0396,0.0398,0.0399,0,-0.0768,-0.0784,-0.0804,-0.0827,-0.0828,-0.0847,-0.0858,-0.0819,-0.0808,-0.0702,-0.0684,-0.0522,-0.0392,-0.0105,0.0083,0.0294,0.0283,0.0377,0.0343,0.0292,0.0307,0.0295,0.0284,0.0354,0.0354,0.0355,0.0355,0,-0.0812,-0.0818,-0.0838,-0.0889,-0.0915,-0.0941,-0.0945,-0.0945,-0.0879,-0.082,-0.0697,-0.0581,-0.0297,-0.0059,0.0203,0.031,0.0337,0.0395,0.0373,0.0287,0.0263,0.0275,0.0264,0.0361,0.036,0.036,0.0359,0.0359,-0.0842,-0.0873,-0.0901,-0.0948,-0.0984,-0.1014,-0.1022,-0.0991,-0.0952,-0.0825,-0.0717,-0.0499,-0.0287,0.0107,0.0279,0.0435,0.0421,0.0448,0.0443,0.0439,0.0403,0.0382,0.0496,0.0497,0.0497,0.0497,0.0497,0,-0.0871,-0.0907,-0.0958,-0.101,-0.1055,-0.1059,-0.1064,-0.1032,-0.0959,-0.0805,-0.0656,-0.0385,-0.0116,0.0115,0.0373,0.0507,0.048,0.0518,0.0457,0.0451,0.0445,0.0407,0.0504,0.0504,0.0505,0.0505,0,0,-0.0889,-0.0942,-0.0971,-0.1053,-0.1089,-0.1115,-0.1108,-0.1027,-0.0908,-0.0737,-0.0554,-0.0352,-0.0077,0.0106,0.0269,0.0406,0.0388,0.0408,0.0385,0.0284,0.0278,0.0384,0.0316,0,0,0,0,0]}],[{"header":{"parameterUnit":"m.s-1","parameterCategory":2,"la1":30.2991,"la2":30.254,"lo1":-89.0895,"lo2":-89.0444,"dy":0.0017,"dx":0.0017,"nx":28,"ny":28,"refTime":"2024-03-27T21:00:00:Z","depth":"4","parameterNumber":2,"parameterNumberName":"U-component_of_CURRENTS"},"data":[0,0,0,0,0,0,0,0,0,0,0,0,0,0,0,0,0,0,0,0,0,0,0,0,0,0,0,0,0,0,0,0,0,0,0,0,0,0,0,0,0,0,0,0,0,0,0,0,0,0,0,0,0,0,0,0,0,0,-0.1529,-0.153,0,-0.163,-0.1632,-0.1634,-0.1712,-0.1712,-0.1713,-0.1713,-0.1836,-0.1839,-0.1842,0,0,0,0,0,0,0,0,0,0,0,0,0,-0.141,-0.1412,-0.1529,-0.153,-0.1531,-0.163,-0.1632,-0.1634,-0.1712,-0.1712,-0.1713,-0.1713,-0.1835,-0.1839,-0.1842,0,0,0,0,0,0,0,0,0,0,0,0,0,-0.1486,-0.1413,-0.1529,-0.1578,-0.1583,-0.163,-0.1632,-0.1635,-0.1712,-0.1712,-0.1713,-0.1713,-0.1834,-0.1838,-0.1843,-0.1863,0,0,-0.1857,-0.1859,0,0,0,0,0,0,0,0,-0.1482,-0.1491,-0.157,-0.1574,-0.158,-0.1654,-0.1635,-0.171,-0.1712,-0.1668,-0.1713,-0.1713,-0.1774,-0.1783,-0.1809,-0.1869,-0.1874,-0.1857,-0.186,-0.1862,-0.1863,0,0,0,0,0,0,0,-0.1477,-0.1487,-0.1575,-0.157,-0.1577,-0.1596,-0.1608,-0.165,-0.1722,-0.1672,-0.1677,-0.168,-0.1777,-0.1804,-0.1812,-0.1876,-0.1857,-0.1861,-0.1864,-0.1866,-0.1991,-0.1991,0,0,0,0,0,0,-0.1453,-0.1483,-0.1571,-0.1577,-0.1525,-0.1598,-0.1611,-0.1634,-0.1721,-0.1733,-0.1679,-0.1683,-0.1796,-0.1807,-0.1817,-0.1891,-0.1862,-0.1866,-0.1869,-0.199,-0.1991,-0.1992,0,0,0,0,0,0,-0.145,-0.1461,-0.1567,-0.1526,-0.1541,-0.1599,-0.1625,-0.1636,-0.1691,-0.1725,-0.1739,-0.1724,-0.1797,-0.181,-0.1878,-0.1894,-0.1868,-0.1872,-0.1989,-0.199,-0.1991,-0.201,0,0,0,0,0,0,-0.1447,-0.146,-0.1484,-0.1526,-0.1542,-0.1612,-0.1624,-0.1638,-0.1688,-0.1695,-0.1768,-0.1778,-0.1798,-0.1871,-0.1883,-0.19,-0.1876,-0.1989,-0.199,-0.1991,-0.2008,-0.2011,-0.2013,0,0,0,0,0,-0.1443,-0.1465,-0.1486,-0.1496,-0.1569,-0.1613,-0.1625,-0.1669,-0.1689,-0.172,-0.1769,-0.1778,-0.1885,-0.1877,-0.189,-0.1908,-0.1988,-0.199,-0.1991,-0.2007,-0.201,-0.2013,0,0,0,0,0,0,-0.1426,-0.1476,-0.1499,-0.1537,-0.158,-0.1624,-0.1656,-0.1685,-0.175,-0.1765,-0.1801,-0.1815,-0.1872,-0.189,-0.1879,-0.1944,-0.1932,-0.1936,-0.194,-0.1943,-0.1946,-0.1926,-0.188,0,0,0,0,0,-0.1431,-0.1467,-0.1511,-0.1545,-0.1568,-0.162,-0.1648,-0.168,-0.173,-0.1761,-0.1812,-0.1854,-0.1883,-0.1916,-0.1947,-0.1999,-0.198,-0.2013,-0.2016,-0.2018,-0.201,-0.1997,-0.1997,-0.1996,-0.1996,-0.1996,0,0,-0.1437,-0.1464,-0.1489,-0.1545,-0.1585,-0.1628,-0.1642,-0.1693,-0.1732,-0.1763,-0.1847,-0.1872,-0.1898,-0.1947,-0.1973,-0.1971,-0.2008,-0.202,-0.2022,-0.2012,-0.1998,-0.1998,-0.1998,-0.1997,-0.1997,-0.1996,0,0,-0.145,-0.1491,-0.1526,-0.1564,-0.1619,-0.1648,-0.1668,-0.1734,-0.1772,-0.1845,-0.1861,-0.1894,-0.1974,-0.1979,-0.1991,-0.2027,-0.2017,-0.2044,-0.2053,-0.2041,-0.2041,-0.204,-0.2008,-0.2005,-0.2051,-0.2051,-0.2051,0,-0.1458,-0.1503,-0.1542,-0.1582,-0.1612,-0.166,-0.1702,-0.1746,-0.1828,-0.1852,-0.1876,-0.1954,-0.1978,-0.2002,-0.2012,-0.2031,-0.2021,-0.2041,-0.2043,-0.2042,-0.2041,-0.2009,-0.2005,-0.2052,-0.2052,-0.2052,-0.2052,0,-0.1489,-0.1539,-0.1561,-0.1629,-0.1668,-0.1711,-0.1763,-0.1815,-0.1863,-0.1897,-0.195,-0.1982,-0.2019,-0.203,-0.2038,-0.2044,-0.2037,-0.2043,-0.2032,-0.2042,-0.2008,-0.2003,-0.2053,-0.2053,-0.2053,-0.2053,0,0,-0.1472,-0.1568,-0.1578,-0.1617,-0.1695,-0.1727,-0.1789,-0.1844,-0.188,-0.1948,-0.1985,-0.2022,-0.2034,-0.2045,-0.2054,-0.2047,-0.2028,-0.205,-0.2049,-0.2012,-0.1993,-0.1867,-0.185,-0.2045,-0.2044,-0.2044,-0.1969,0,-0.1489,-0.1561,-0.1605,-0.1679,-0.172,-0.1777,-0.1827,-0.1882,-0.1932,-0.1982,-0.1997,-0.2039,-0.2041,-0.2061,-0.2053,-0.2041,-0.2019,-0.2047,-0.1994,-0.1991,-0.1873,-0.1841,-0.2042,-0.1965,-0.1964,-0.1963,-0.1963,0,-0.1494,-0.1545,-0.1617,-0.1701,-0.1725,-0.1776,-0.1848,-0.19,-0.1962,-0.1999,-0.2032,-0.2055,-0.2058,-0.206,-0.2024,-0.2049,-0.2016,-0.1998,-0.1995,-0.1864,-0.1856,-0.1956,-0.1954,-0.1954,-0.1955,-0.1956,-0.1956,0,-0.1441,-0.1543,-0.1598,-0.1631,-0.1738,-0.1778,-0.1833,-0.1905,-0.194,-0.2007,-0.2033,-0.2053,-0.2058,-0.2036,-0.2,-0.202,-0.1947,-0.1967,-0.1814,-0.1805,-0.1936,-0.1938,-0.1919,-0.192,-0.192,-0.192,-0.192,0,-0.1415,-0.1462,-0.1584,-0.1616,-0.1676,-0.1759,-0.1818,-0.1875,-0.1944,-0.1958,-0.2033,-0.2022,-0.2055,-0.2024,-0.1994,-0.1872,-0.1935,-0.1789,-0.1769,-0.1945,-0.1949,-0.1932,-0.1934,-0.1917,-0.1918,-0.1918,-0.1919,0,-0.1341,-0.1425,-0.1494,-0.1617,-0.1655,-0.1697,-0.1803,-0.183,-0.1915,-0.1933,-0.1952,-0.1995,-0.1943,-0.1949,-0.1897,-0.1834,-0.1756,-0.1697,-0.1865,-0.186,-0.1625,-0.1629,-0.1511,-0.1506,-0.1502,-0.1498,-0.1495,0,-0.1306,-0.1338,-0.1476,-0.1511,-0.1572,-0.165,-0.1689,-0.1797,-0.1815,-0.1878,-0.1858,-0.1856,-0.186,-0.1677,-0.1708,-0.1629,-0.1612,-0.1569,-0.1605,-0.1586,-0.1579,-0.1591,-0.1601,-0.1488,-0.1486,-0.1485,-0.1484,0,-0.123,-0.1293,-0.1349,-0.1427,-0.1485,-0.1536,-0.1601,-0.1601,-0.169,-0.1784,-0.1703,-0.1665,-0.1599,-0.1558,-0.151,-0.1459,-0.1602,-0.1522,-0.1532,-0.1566,-0.1556,-0.1556,-0.1572,-0.1469,-0.1471,-0.1472,-0.1473,0,-0.1164,-0.1184,-0.1263,-0.1315,-0.1382,-0.1389,-0.1447,-0.145,-0.148,-0.156,-0.1512,-0.1514,-0.1556,-0.1464,-0.1413,-0.1362,-0.1345,-0.1312,-0.1332,-0.135,-0.1334,-0.1301,-0.109,0,0,0,0,0,-0.1087,-0.1096,-0.114,-0.1186,-0.1245,-0.1278,-0.1364,-0.142,-0.1504,-0.14,-0.1456,-0.1385,-0.1306,-0.1312,-0.1221,-0.1345,-0.136,-0.1236,-0.1336,-0.1383,-0.1401,-0.1399,0,0,0,0,0,0,-0.1034,-0.1071,-0.1095,-0.1058,-0.1059,-0.1101,-0.1147,-0.1211,-0.1169,-0.1259,-0.1219,-0.129,-0.1234,-0.1318,-0.1182,-0.1186,-0.1219,-0.1255,-0.1251,-0.1373,-0.1389,-0.1403,-0.1408,0,0,0,0,0]},{"header":{"parameterUnit":"m.s-1","parameterCategory":2,"la1":30.2991,"la2":30.254,"lo1":-89.0895,"lo2":-89.0444,"dy":0.0017,"dx":0.0017,"nx":28,"ny":28,"refTime":"2024-03-27T21:00:00:Z","depth":"4","parameterNumber":3,"parameterNumberName":"V-component_of_CURRENTS"},"data":[0,0,0,0,0,0,0,0,0,0,0,0,0,0,0,0,0,0,0,0,0,0,0,0,0,0,0,0,0,0,0,0,0,0,0,0,0,0,0,0,0,0,0,0,0,0,0,0,0,0,0,0,0,0,0,0,0,0,-0.0386,-0.0386,0,-0.0341,-0.034,-0.0339,-0.0315,-0.0315,-0.0314,-0.0314,-0.0237,-0.0235,-0.0232,0,0,0,0,0,0,0,0,0,0,0,0,0,-0.0398,-0.0399,-0.0387,-0.0386,-0.0385,-0.0341,-0.034,-0.0339,-0.0315,-0.0315,-0.0314,-0.0314,-0.0237,-0.0235,-0.0232,0,0,0,0,0,0,0,0,0,0,0,0,0,-0.0377,-0.0399,-0.0387,-0.0368,-0.0366,-0.0341,-0.034,-0.0339,-0.0315,-0.0315,-0.0314,-0.0314,-0.0238,-0.0235,-0.0232,-0.0213,0,0,-0.0223,-0.0221,0,0,0,0,0,0,0,0,-0.0378,-0.0376,-0.0371,-0.0369,-0.0367,-0.0334,-0.0315,-0.0296,-0.0315,-0.0334,-0.0314,-0.0314,-0.0266,-0.0261,-0.0252,-0.021,-0.0206,-0.0222,-0.022,-0.0219,-0.0218,0,0,0,0,0,0,0,-0.038,-0.0378,-0.0368,-0.0371,-0.0368,-0.0343,-0.0341,-0.0311,-0.03,-0.0332,-0.033,-0.0326,-0.0265,-0.0255,-0.025,-0.0205,-0.0222,-0.022,-0.0218,-0.0216,-0.0152,-0.0152,0,0,0,0,0,0,-0.0389,-0.038,-0.0369,-0.0367,-0.0373,-0.0343,-0.034,-0.0344,-0.0301,-0.0294,-0.0326,-0.0325,-0.0261,-0.0254,-0.0247,-0.0219,-0.0219,-0.0216,-0.0214,-0.0152,-0.0152,-0.0152,0,0,0,0,0,0,-0.039,-0.0389,-0.0371,-0.0372,-0.0368,-0.0344,-0.0348,-0.0343,-0.0337,-0.0296,-0.0289,-0.0325,-0.026,-0.0252,-0.022,-0.0216,-0.0215,-0.0212,-0.0151,-0.0152,-0.0152,-0.0166,0,0,0,0,0,0,-0.039,-0.039,-0.0396,-0.0373,-0.0368,-0.0357,-0.0347,-0.0342,-0.0334,-0.0332,-0.0293,-0.0286,-0.026,-0.0225,-0.0217,-0.0212,-0.021,-0.0151,-0.0151,-0.0152,-0.0165,-0.0166,-0.0168,0,0,0,0,0,-0.0391,-0.0399,-0.0397,-0.0395,-0.0378,-0.0357,-0.0352,-0.0334,-0.0334,-0.0329,-0.0303,-0.0287,-0.0222,-0.0222,-0.0213,-0.0207,-0.0151,-0.0151,-0.0152,-0.0165,-0.0166,-0.0168,0,0,0,0,0,0,-0.0405,-0.0396,-0.0394,-0.0398,-0.038,-0.0353,-0.0349,-0.0339,-0.0315,-0.0315,-0.0281,-0.0272,-0.0247,-0.0227,-0.0229,-0.0191,-0.0187,-0.0185,-0.02,-0.0201,-0.0202,-0.0204,-0.0207,0,0,0,0,0,-0.0413,-0.042,-0.04,-0.0404,-0.0398,-0.0376,-0.0367,-0.0354,-0.033,-0.0321,-0.0292,-0.0265,-0.0241,-0.0221,-0.0197,-0.0169,-0.0145,-0.0163,-0.0164,-0.0165,-0.0161,-0.0119,-0.0116,-0.0153,-0.0153,-0.0153,0,0,-0.0421,-0.0416,-0.0421,-0.0408,-0.0395,-0.0383,-0.037,-0.0359,-0.0346,-0.0315,-0.0291,-0.0269,-0.0237,-0.0209,-0.0196,-0.0189,-0.0144,-0.0165,-0.0166,-0.0162,-0.0119,-0.0115,-0.0112,-0.0153,-0.0153,-0.0153,0,0,-0.0432,-0.0436,-0.044,-0.0427,-0.0409,-0.0393,-0.0392,-0.0365,-0.0352,-0.0327,-0.0305,-0.0276,-0.024,-0.0207,-0.019,-0.0182,-0.0157,-0.0185,-0.0181,-0.0141,-0.0137,-0.0133,-0.0105,-0.0098,-0.0179,-0.0179,-0.0179,0,-0.0441,-0.0445,-0.0436,-0.0429,-0.0422,-0.04,-0.0395,-0.0375,-0.034,-0.0327,-0.0323,-0.0267,-0.0236,-0.0196,-0.0194,-0.0182,-0.0164,-0.0177,-0.0141,-0.0137,-0.0133,-0.0104,-0.0097,-0.018,-0.018,-0.018,-0.0179,0,-0.0446,-0.045,-0.0451,-0.0439,-0.0428,-0.0422,-0.0395,-0.038,-0.0367,-0.0343,-0.031,-0.0267,-0.0232,-0.022,-0.0201,-0.0162,-0.016,-0.0152,-0.0136,-0.013,-0.0101,-0.0093,-0.0181,-0.018,-0.018,-0.018,0,0,-0.0469,-0.0458,-0.046,-0.0462,-0.0436,-0.0431,-0.041,-0.0383,-0.0376,-0.0336,-0.0317,-0.0264,-0.0244,-0.0223,-0.0195,-0.0152,-0.0106,-0.0142,-0.014,-0.0111,-0.0026,-0.0044,-0.0037,-0.0094,-0.0093,-0.0092,-0.0019,0,-0.0477,-0.048,-0.0465,-0.0468,-0.0469,-0.0445,-0.0431,-0.0403,-0.0378,-0.0352,-0.03,-0.0275,-0.0245,-0.0235,-0.0184,-0.0132,-0.0086,-0.0127,-0.0038,-0.0035,-0.0049,-0.0028,-0.0087,-0.0013,-0.0011,-0.001,-0.0009,0,-0.0484,-0.0489,-0.0496,-0.0495,-0.0493,-0.049,-0.0476,-0.0459,-0.041,-0.039,-0.0345,-0.0309,-0.0241,-0.0224,-0.0111,-0.0143,-0.0084,-0.0038,-0.0034,-0.0039,-0.0038,-0.0018,0.0006,0.0005,0.0003,0.0002,0.0002,0,-0.0513,-0.0511,-0.0525,-0.0523,-0.0513,-0.0516,-0.051,-0.0475,-0.0468,-0.0417,-0.0408,-0.0322,-0.0291,-0.0199,-0.0104,-0.0107,0.0013,0.0023,0.0067,0.0066,0.0066,0.0062,0.011,0.011,0.011,0.0109,0.0109,0,-0.0527,-0.0541,-0.0547,-0.0557,-0.0582,-0.0557,-0.0572,-0.0551,-0.0521,-0.0511,-0.0436,-0.0411,-0.0284,-0.0202,-0.0109,-0.0002,0.0014,0.0074,0.0089,0.0056,0.005,0.0071,0.0066,0.0112,0.0111,0.0111,0.011,0,-0.0551,-0.0553,-0.0578,-0.0588,-0.0598,-0.0619,-0.0629,-0.0633,-0.0598,-0.0584,-0.0571,-0.0475,-0.0365,-0.0239,-0.0091,-0.002,0.0089,0.0124,0.0072,0.0081,0.0117,0.011,0.0186,0.0187,0.0187,0.0187,0.0187,0,-0.0559,-0.0576,-0.0616,-0.0645,-0.0656,-0.0684,-0.0704,-0.0681,-0.068,-0.0622,-0.0615,-0.0513,-0.0435,-0.0234,-0.0106,0.0073,0.0097,0.015,0.0149,0.0121,0.0128,0.012,0.0113,0.0187,0.0187,0.0187,0.0187,0,-0.058,-0.0602,-0.0627,-0.0691,-0.0729,-0.0763,-0.0783,-0.0784,-0.0746,-0.0722,-0.0636,-0.0522,-0.0399,-0.0238,-0.0102,0.0025,0.0114,0.0151,0.0152,0.0152,0.0122,0.0127,0.012,0.0187,0.0187,0.0187,0.0187,0,-0.06,-0.0631,-0.0675,-0.0726,-0.0784,-0.0818,-0.0823,-0.0802,-0.0789,-0.0708,-0.0685,-0.0537,-0.0448,-0.0263,-0.0141,-0.0016,0.002,0.0059,0.0066,0.0067,0.0008,-0.0049,-0.0017,0,0,0,0,0,-0.0609,-0.0649,-0.0705,-0.0762,-0.082,-0.0845,-0.0864,-0.0854,-0.0817,-0.0759,-0.0713,-0.059,-0.0387,-0.0303,-0.0178,-0.0151,0.0025,-0.0004,0.007,0.0189,0.0189,0.0138,0,0,0,0,0,0,-0.0619,-0.0675,-0.0705,-0.078,-0.0821,-0.0876,-0.0884,-0.0859,-0.0811,-0.0756,-0.0646,-0.0573,-0.0378,-0.0458,-0.018,-0.0144,-0.0083,0.0095,0.0097,0.0189,0.0189,0.0188,0.0136,0,0,0,0,0]}]]